Location: Newark
(42.4481°N, 9.4039°E)
Time: 08:08:52
(UTC+00:00)

N. Korean satellite - Visible Passes

Search period start: 22 November 2019 00:00
Search period end: 02 December 2019 00:00
Orbit: 456 x 506 km, 97.2° (Epoch: 21 November)

Date Brightness Start Highest point End Pass type
(mag) Time Alt. Az. Time Alt. Az. Time Alt. Az.
22 Nov 8.1 04:53:35 10° NNE 04:57:06 40° E 05:00:32 10° S visible
22 Nov 8.8 17:02:46 10° SSW 17:06:01 30° W 17:09:20 10° NNW visible
23 Nov 9.4 04:28:47 10° NE 04:31:34 20° E 04:34:18 10° SE visible
23 Nov 7.1 16:36:56 10° S 16:40:33 65° W 16:44:15 10° NNW visible
24 Nov 6.7 05:36:05 10° N 05:39:40 53° WNW 05:43:12 10° SSW visible
25 Nov 6.9 05:10:38 10° NNE 05:14:18 70° E 05:17:53 10° S visible
25 Nov 9.7 17:20:38 10° SW 17:23:18 19° W 17:26:01 10° NW visible
26 Nov 8.5 04:45:31 10° NNE 04:48:51 32° E 04:52:05 10° SSE visible
26 Nov 8.3 16:54:19 10° SSW 16:57:46 38° W 17:01:16 10° NNW visible
27 Nov 9.8 04:20:57 10° NE 04:23:16 16° E 04:25:33 10° SE visible
27 Nov 7.3 05:53:28 10° N 05:56:45 32° WNW 05:59:58 10° SW visible
27 Nov 6.7 16:28:38 10° S 16:32:19 83° W 16:36:04 10° NNW visible
28 Nov 6.5 05:27:48 10° N 05:31:27 68° WNW 05:34:59 10° SSW visible
28 Nov 10.1 17:39:09 10° WSW 17:40:36 12° W 17:42:04 10° WNW visible
29 Nov 7.4 05:02:26 10° NNE 05:06:02 54° E 05:09:31 10° S visible
29 Nov 9.3 17:11:58 10° SSW 17:14:59 23° W 17:18:02 10° NW visible
30 Nov 9.0 04:37:27 10° NE 04:40:31 25° E 04:43:31 10° SSE visible
30 Nov 7.8 16:45:54 10° S 16:49:29 48° W 16:53:06 10° NNW visible
01 Dec 10.0 04:13:15 10° ENE 04:14:54 13° E 04:16:32 10° ESE visible
01 Dec 7.0 05:45:06 10° N 05:48:30 39° WNW 05:51:50 10° SW visible
01 Dec 6.6 16:20:22 10° SSE 16:24:03 78° ENE 16:27:47 10° N visible
